Wind_Speed
32 29 28 25 23 21 18 16 13 11 9 7 4 2 2 4 6 9 9 10 10 11 12 14 15 17 18 19 21 21 20 22 17 36 28 31 31 32 32 29 31 33 29
32 30 28 26 24 21 18 16 13 11 7 5 4 2 2 3 6 7 7 8 10 11 13 14 16 17 18 20 21 22 19 25 25 25 35 31 30 30 32 33 28 30 28
31 30 28 27 24 21 18 15 12 9 7 5 3 1 1 4 5 5 6 8 10 11 13 14 16 18 20 22 22 21 23 26 25 25 34 31 32 29 33 34 33 31 29
31 30 28 26 24 21 17 14 11 8 6 4 2 2 2 4 4 3 6 8 11 12 14 15 17 18 19 19 23 25 25 28 26 26 28 29 28 27 25 27 31 27 28
32 31 28 25 23 20 16 13 10 8 6 5 4 3 3 3 2 2 6 9 12 14 14 15 16 19 24 22 21 22 25 25 26 27 28 29 27 25 25 27 26 28 29
33 31 28 26 23 19 16 13 11 9 7 6 6 5 4 2 3 7 9 10 12 14 15 17 18 21 20 22 25 24 25 28 30 27 27 25 29 27 29 28 25 20 9
33 31 28 26 23 19 16 14 12 11 10 9 8 6 4 3 4 9 10 9 10 12 15 17 19 20 23 24 25 26 28 27 31 33 32 28 29 28 30 29 24 19 21
33 31 28 26 23 20 17 15 13 11 10 9 7 4 3 4 8 4 8 8 12 13 14 17 20 23 23 26 30 31 30 29 27 26 28 33 32 34 31 30 28 25 24
32 30 28 26 23 20 18 16 14 12 10 8 7 5 3 1 5 6 9 11 12 15 16 17 21 25 26 28 32 32 31 31 27 28 30 32 31 29 26 24 19 14 10
31 30 28 25 22 19 18 16 14 13 10 8 6 5 3 2 2 9 10 10 13 16 18 19 22 24 25 31 32 29 28 28 29 34 32 29 28 26 21 19 19 13 11
30 31 27 23 21 20 18 16 14 12 10 9 7 5 3 1 3 9 10 10 13 18 20 22 23 24 30 34 28 27 25 28 32 28 25 25 25 21 19 17 16 16 14
31 30 27 24 21 20 19 16 14 13 12 9 7 5 2 2 5 8 12 14 16 17 21 24 25 31 30 28 26 24 24 25 21 21 21 20 18 19 21 18 15 12 12
30 28 26 23 21 19 18 17 15 13 11 9 6 4 2 2 3 7 11 14 17 17 22 26 30 26 26 24 23 23 21 20 20 18 18 18 20 20 17 13 11 9 9
29 25 24 23 22 19 18 17 15 13 11 9 7 4 2 2 3 5 9 11 14 18 21 22 22 23 20 21 20 20 19 18 18 17 17 20 18 16 13 11 9 7 7
28 23 23 27 22 21 17 15 14 11 10 10 8 5 5 5 5 9 12 14 14 18 22 19 16 17 20 20 20 20 19 16 16 16 16 17 14 13 11 11 9 6 7
27 23 23 23 24 18 17 15 13 12 11 9 8 6 6 6 7 9 11 13 13 16 16 14 15 17 18 19 19 20 20 14 12 16 16 13 12 11 11 9 6 7 7
25 25 23 21 19 18 16 14 11 10 8 8 8 8 7 7 8 9 11 12 11 9 11 15 14 15 18 18 19 18 17 17 15 12 12 12 10 9 9 6 5 6 7
24 25 23 20 18 17 16 14 12 9 8 9 12 11 9 9 10 11 10 10 10 9 10 12 15 16 17 17 19 19 19 18 14 12 11 9 9 8 6 4 5 6 7
26 22 20 19 18 16 14 12 10 8 9 8 7 9 12 12 12 12 9 9 10 11 10 12 15 17 16 17 19 21 21 19 15 11 9 9 8 6 4 4 6 7 8
20 23 19 16 16 14 12 10 9 10 10 11 12 14 11 11 13 12 12 12 11 11 11 13 15 17 17 18 19 20 20 17 14 10 8 7 5 3 1 3 5 7 9
16 17 15 14 12 11 10 11 11 12 13 14 16 19 19 16 15 14 15 16 14 12 12 13 15 17 18 19 19 19 19 19 16 12 7 5 2 0 3 6 8 10 11
14 13 12 10 10 11 12 12 13 14 15 16 16 16 18 20 16 18 18 17 16 14 12 13 15 15 17 18 19 18 18 19 17 13 8 5 3 4 5 7 9 10 11
10 9 9 10 11 11 11 13 13 14 16 16 17 17 16 19 21 21 18 17 16 15 15 14 16 16 16 16 19 18 19 18 18 13 9 8 6 7 8 9 10 10 11
8 9 10 10 9 12 12 12 14 15 16 17 18 19 20 21 22 22 21 20 19 18 18 17 15 16 17 17 18 18 17 17 16 13 12 11 9 10 11 12 11 11 13
8 7 5 5 7 8 11 12 12 14 15 16 17 18 20 21 21 20 20 21 19 17 16 16 15 16 17 19 21 18 19 18 18 16 14 14 14 14 15 15 14 14 14
5 4 6 5 6 9 11 11 12 12 14 14 16 18 18 17 18 18 18 16 15 16 16 15 16 16 17 19 17 19 20 16 18 18 16 15 17 17 18 18 19 16 17
Wind_Direction
156 159 158 158 157 155 156 156 154 154 163 174 187 210 274 305 301 290 294 299 303 305 306 303 302 304 305 304 304 298 296 295 295 296 299 302 307 309 302 299 296 292 293
155 158 152 158 154 156 157 157 157 159 163 179 193 212 285 297 286 296 304 307 308 308 306 306 307 309 306 303 300 302 306 296 294 299 300 303 302 307 307 301 294 290 288
157 154 159 159 160 158 156 157 159 162 169 173 170 167 272 274 283 294 305 313 311 307 306 308 307 308 306 305 308 311 302 300 294 292 294 302 303 308 307 302 299 294 288
159 162 163 165 160 155 155 156 157 158 163 161 164 187 225 251 271 306 323 321 316 310 309 307 306 306 313 317 308 302 304 303 302 292 286 293 297 304 297 298 300 301 300
167 168 166 160 152 151 152 151 150 149 153 165 180 186 204 239 232 346 334 320 316 314 313 310 306 302 302 308 304 305 306 302 303 299 297 299 301 306 303 299 290 297 301
172 169 162 153 149 151 150 149 147 150 155 170 176 179 191 178 238 303 318 312 316 316 314 312 311 310 308 303 306 304 304 301 297 295 298 295 297 298 296 295 292 293 297
172 164 159 154 152 151 149 151 154 157 157 168 176 188 191 176 284 299 313 318 316 323 317 314 310 308 311 310 310 307 307 297 291 291 288 289 294 299 296 292 287 286 288
172 163 157 153 150 151 152 155 157 160 172 176 171 176 191 246 294 328 332 333 329 321 315 310 307 310 312 312 314 309 303 300 296 293 291 294 294 296 295 290 287 290 288
168 161 154 150 148 152 155 160 162 163 168 168 172 179 201 237 307 325 347 344 328 319 312 309 309 311 312 316 313 304 303 302 305 304 306 308 305 304 304 304 287 282 286
165 155 147 146 150 157 161 164 162 166 164 165 161 161 166 112 301 328 333 336 324 318 315 317 316 316 312 316 313 306 302 304 309 312 318 319 318 317 311 306 300 277 280
152 143 142 151 157 157 162 166 166 159 156 154 153 158 147 138 342 334 349 337 327 322 321 320 315 313 310 317 317 310 301 310 310 312 311 314 323 323 322 316 305 297 290
150 144 148 153 154 161 166 161 161 154 153 152 155 143 123 28 332 326 328 324 323 318 316 314 310 310 320 320 320 320 320 319 317 314 316 319 324 328 324 319 321 321 305
145 144 148 149 160 161 156 155 153 154 156 155 150 135 100 358 315 315 319 318 320 314 311 310 310 323 321 322 324 326 328 326 317 315 320 321 321 323 325 332 335 352 0
137 141 148 152 152 149 152 155 154 157 157 153 147 147 194 274 294 302 319 325 322 316 316 312 320 324 325 327 329 330 328 325 323 319 321 322 324 334 340 348 336 359 23
132 144 148 149 151 152 153 154 153 156 162 158 159 174 214 248 257 284 309 315 314 311 314 317 319 328 330 332 333 332 328 329 330 332 328 326 332 342 345 351 341 355 47
147 153 154 152 154 152 150 147 157 169 171 172 185 204 232 263 279 299 316 320 317 314 316 313 320 324 322 327 328 330 328 328 335 330 330 332 340 346 347 354 18 71 81
153 152 152 154 157 150 146 151 159 177 188 204 217 226 245 270 290 304 316 321 318 313 305 311 308 319 320 324 324 325 327 330 331 332 329 337 339 341 349 359 53 82 89
152 149 149 153 152 155 160 161 165 171 196 230 234 240 255 272 286 301 306 318 306 291 301 306 313 314 317 322 325 324 327 325 327 332 327 334 342 343 350 17 66 88 110
142 144 145 147 153 161 165 171 177 196 215 229 238 252 261 264 275 286 285 270 285 296 308 307 310 316 315 317 321 324 326 322 318 323 322 330 336 346 16 52 79 105 95
139 146 147 151 158 165 170 179 196 214 226 234 238 243 245 250 263 276 275 269 274 286 300 305 308 313 317 315 320 322 322 320 322 322 321 323 331 347 72 125 138 114 100
146 156 157 162 171 176 189 204 214 222 231 238 244 249 250 243 251 259 265 269 274 279 293 301 305 313 314 318 313 316 321 319 313 307 303 303 305 179 148 120 109 115 123
154 162 176 182 191 202 213 221 226 233 238 243 249 250 250 245 252 259 259 262 267 275 284 290 296 302 311 314 315 309 312 312 309 298 286 269 240 190 166 150 139 132 128
163 176 188 203 214 224 229 237 245 248 252 255 254 252 242 235 240 247 256 263 266 272 278 285 293 297 302 307 313 305 302 301 300 295 275 249 221 198 180 165 154 151 148
190 203 218 229 229 242 249 251 250 254 258 260 258 252 247 248 249 252 256 265 268 271 279 287 292 291 300 302 302 305 299 298 289 280 265 243 219 200 188 178 170 161 152
204 210 229 249 254 265 266 267 267 264 264 265 265 257 258 258 254 252 257 261 258 265 272 282 282 292 300 301 302 313 303 287 281 271 258 237 223 204 193 183 170 161 163
158 205 234 239 246 261 263 263 266 268 267 267 266 263 259 257 259 259 257 257 257 263 265 269 281 287 296 303 307 301 302 293 284 268 250 234 221 205 194 185 174 167 169
Height
747 755 761 768 775 780 786 791 794 797 801 804 807 808 809 810 812 814 813 812 811 810 810 809 807 806 802 798 796 794 793 792 783 766 769 763 759 757 753 749 746 743 738
744 752 759 767 772 778 784 788 792 796 799 802 804 805 807 808 811 811 811 811 809 809 809 807 805 803 799 797 794 790 787 786 782 772 762 761 758 755 750 745 741 737 732
742 750 758 764 769 775 782 787 791 794 797 800 802 803 805 808 810 810 810 809 809 808 807 805 803 800 797 794 791 789 788 783 780 775 763 761 756 754 747 742 736 731 727
740 748 756 761 766 773 780 785 788 792 795 798 800 802 804 807 808 809 809 809 809 806 804 802 800 799 796 793 791 789 785 780 775 770 763 755 752 748 746 740 730 726 721
736 746 753 760 765 772 778 782 786 789 792 796 799 801 804 806 806 808 808 808 805 803 801 800 799 796 794 793 791 787 784 779 774 768 761 754 749 744 742 736 730 724 718
734 743 751 757 763 769 774 779 782 786 790 794 797 800 802 803 803 804 804 805 802 800 798 798 796 794 792 789 787 785 783 777 770 766 759 753 745 742 737 733 726 721 716
731 739 747 754 760 766 771 776 780 784 788 792 795 797 799 800 801 802 801 800 798 796 796 794 793 793 790 786 782 778 776 772 768 763 756 750 742 739 733 727 723 718 715
728 737 743 750 756 762 768 774 779 783 788 790 793 796 797 798 798 799 797 797 796 795 794 794 791 787 784 781 776 772 767 763 760 757 752 744 739 733 729 723 718 714 710
727 734 739 746 754 761 766 772 777 781 786 788 790 792 794 795 795 795 794 793 793 793 791 790 789 784 781 779 772 767 761 755 753 750 745 738 732 727 723 718 713 711 706
726 730 736 744 752 760 766 771 774 778 782 785 787 789 791 792 792 792 790 792 791 790 788 786 783 780 777 774 769 763 756 751 747 742 736 731 726 721 718 715 711 708 705
724 726 733 743 752 758 764 769 772 775 779 782 784 787 788 789 790 789 790 791 790 787 783 780 778 776 772 768 765 759 753 749 743 738 732 727 722 719 715 712 709 706 703
721 723 733 742 749 755 761 765 769 772 776 780 783 784 787 788 788 788 788 788 787 785 782 780 775 771 767 762 758 755 749 745 740 736 730 725 721 717 713 709 706 703 700
718 724 733 740 749 754 758 763 767 771 775 778 781 782 784 785 786 787 785 785 784 781 778 775 772 766 763 759 755 751 746 742 739 734 729 725 721 716 712 708 705 702 699
717 726 733 740 747 752 756 760 764 768 772 775 778 780 782 784 785 785 783 779 778 778 775 770 768 765 761 757 752 748 744 741 737 733 729 724 720 715 712 709 706 704 702
719 730 735 739 744 750 755 759 762 767 771 772 775 778 780 780 780 780 779 776 775 775 771 767 765 763 759 754 751 746 742 739 736 732 728 724 720 716 713 711 708 706 705
721 727 732 737 744 749 753 757 762 766 768 771 773 775 777 776 777 776 776 773 773 773 771 766 763 761 758 753 749 744 741 738 735 732 729 725 721 718 716 713 711 709 709
717 724 731 737 743 746 751 756 761 765 767 770 771 771 772 773 773 773 772 770 768 770 766 767 762 759 757 752 748 744 740 738 734 731 729 726 723 720 718 715 714 713 713
717 722 729 735 741 745 750 754 758 762 764 766 768 769 769 769 770 770 769 767 767 766 761 762 759 756 754 750 747 743 740 737 734 731 729 726 724 721 719 718 717 716 716
717 723 730 735 739 744 748 752 754 759 761 764 766 766 766 766 767 767 766 765 764 764 758 757 756 754 750 747 745 742 738 736 733 730 728 726 724 723 721 720 720 719 719
720 725 729 734 739 743 746 748 752 756 758 760 761 761 762 764 764 763 762 760 760 757 755 754 752 750 747 744 742 739 736 734 732 729 727 726 725 723 723 722 722 722 723
722 727 731 734 738 739 743 746 749 751 753 755 755 756 756 758 758 758 758 758 753 753 751 750 749 746 744 742 739 737 734 732 731 729 726 726 725 724 724 724 724 724 726
722 727 730 732 735 738 741 743 743 745 745 747 749 751 751 752 752 754 753 751 749 748 747 746 745 743 741 739 737 734 732 730 728 727 726 725 725 724 725 725 726 727 728
721 726 727 731 733 737 738 740 740 740 742 742 744 745 745 745 745 747 746 744 744 743 742 742 741 739 737 735 733 731 729 727 726 725 724 724 723 724 725 726 727 728 729
720 724 727 729 730 733 735 736 735 735 737 738 738 738 739 739 740 741 740 739 739 738 738 737 736 734 733 731 729 727 725 724 723 722 722 722 722 722 723 725 726 728 730
718 722 724 727 727 730 732 732 732 732 733 734 733 733 734 734 734 733 733 733 733 732 732 732 731 729 728 726 724 722 720 719 719 719 719 719 719 720 721 723 725 727 730
716 719 723 724 725 727 729 728 727 728 728 727 728 728 727 727 727 727 727 727 727 726 726 726 725 724 723 721 719 718 715 713 713 713 714 715 715 717 718 721 723 726 729